Regional Weather Roundup
Issued by NWS

Home | Current Version | Previous Version | Graphics & Text | Print | Product List | Glossary On
Versions: 1 2 3 4 5 6 7 8 9 10 11 12 13 14 15 16 17 18 19 20 21 22 23 24 25 26 27 28 29 30 31 32 33 34 35 36 37 38 39 40 41 42 43 44 45 46 47 48 49 50
000
ASUS43 KIND 030559
RWRIN

WEATHER ROUNDUP FOR INDIANA
NATIONAL WEATHER SERVICE INDIANAPOLIS IN
200 AM EDT FRI JUL 03 2015

NOTE: "FAIR" INDICATES FEW OR NO CLOUDS BELOW 12,000 FEET WITH NO
SIGNIFICANT WEATHER AND/OR OBSTRUCTIONS TO VISIBILITY.

* - STATION DOES NOT REPORT WEATHER SUCH AS PRECIPITATION OR FOG.

+ - STATION NOT QUALITY CONTROLLED BY THE NATIONAL WEATHER SERVICE.
    USE DATA WITH CAUTION...ESPECIALLY DEWPOINT AND RELATIVE
    HUMIDITY OBSERVATIONS.

INZ001>003-010>013-019-020-030700-
NORTHWEST INDIANA

CITY           SKY/WX    TMP DP  RH WIND       PRES   REMARKS
MONTICELLO +   CLOUDY    64  59  81 NE6       29.95S
6HR MIN TEMP:  64; 6HR MAX TEMP:  74;

RENSSELAER +   PTCLDY    61  59  94 N6        29.96S

$$

LMZ046-743>745-030700-
SOUTHERN LAKE MICHIGAN

STATION/POSITION TIME  TEMP    WIND        PRES    WAVE
                       AIR SEA DIR/SP/G            HT
                 (UTC) (F)     (DEG/KT/KT) (MB)    (FT)
BURNS HARBOR     0500   61      70/  8/ 10 1016.3R
MICHIGAN CITY    0500   59      30/ 10/ 11   N/A
5NW MICH CITY    0500   61 62   80/  8/ 12   N/A     3

$$

INZ004-005-014>016-021>024-030700-
NORTH CENTRAL INDIANA

CITY           SKY/WX    TMP DP  RH WIND       PRES   REMARKS
GOSHEN         PTCLDY    61  55  81 NE7       29.98S
6HR MIN TEMP:  60; 6HR MAX TEMP:  72;

SOUTH BEND     PTCLDY    58  54  86 N3        30.00R
6HR MIN TEMP:  58; 6HR MAX TEMP:  72;


$$

INZ006>009-017-018-025>027-030700-
NORTHEAST INDIANA

CITY           SKY/WX    TMP DP  RH WIND       PRES   REMARKS
ANGOLA *+        N/A     57  54  88 CALM      30.00R
FORT WAYNE     PTCLDY    60  54  80 E6        29.98S
6HR MIN TEMP:  59; 6HR MAX TEMP:  72;


$$

INZ028-029-035-036-043>045-051>053-030700-
WEST CENTRAL INDIANA

CITY           SKY/WX    TMP DP  RH WIND       PRES   REMARKS
CRAWFORDSVL +  MOCLDY    65  58  78 NE7       29.92S
6HR MIN TEMP:  64; 6HR MAX TEMP:  73;

GREENCASTLE +  MOCLDY    68  61  77 NE5       29.91S
LAFAYETTE      PTCLDY    65  58  78 NE10      29.93S
6HR MIN TEMP:  65; 6HR MAX TEMP:  73;

TERRE HAUTE    CLOUDY    71  65  81 NE6       29.90R
6HR MIN TEMP:  71; 6HR MAX TEMP:  76;


$$

INZ030>032-037>040-046>048-054>057-064-065-030700-
CENTRAL INDIANA

CITY           SKY/WX    TMP DP  RH WIND       PRES   REMARKS
GREENWOOD *+   CLOUDY    70  61  73 NE8       29.92S
INDIANAPOLIS   CLOUDY    70  60  70 NE13      29.89S
6HR MIN TEMP:  70; 6HR MAX TEMP:  77;

-EAGLE CREEK   MOCLDY    69  61  75 NE9       29.91S
6HR MIN TEMP:  69; 6HR MAX TEMP:  76;

KOKOMO *+      CLOUDY    63  55  77 E9        29.95S
6HR MIN TEMP:  63; 6HR MAX TEMP:  72;

MT COMFORT *+  PTCLDY    66  57  72 E10       29.93S
SHELBYVILLE    CLOUDY    71  62  73 NE8       29.90S
6HR MIN TEMP:  71; 6HR MAX TEMP:  77;


$$

INZ033-034-041-042-049-050-058-059-030700-
EAST CENTRAL INDIANA

CITY           SKY/WX    TMP DP  RH WIND       PRES   REMARKS
MUNCIE         PTCLDY    64  57  78 E8        29.95S
6HR MIN TEMP:  64; 6HR MAX TEMP:  74;


$$

INZ060-061-067>069-081>083-085>088-030700-
SOUTHWEST INDIANA

CITY           SKY/WX    TMP DP  RH WIND       PRES   REMARKS
EVANSVILLE     CLOUDY    73  70  90 N3        29.87S FOG
6HR MIN TEMP:  73; 6HR MAX TEMP:  77;

HUNTINGBURG *+ CLOUDY    72  68  88 CALM      29.87S
6HR MIN TEMP:  70; 6HR MAX TEMP:  73;


$$

INZ062-063-066-070>080-084-089>092-030700-
SOUTH CENTRAL AND SOUTHEAST INDIANA

CITY           SKY/WX    TMP DP  RH WIND       PRES   REMARKS
BLOOMINGTON    CLOUDY    71  66  84 E6        29.89S
6HR MIN TEMP:  71; 6HR MAX TEMP:  76;

MADISON *+     CLOUDY    70  66  88 NE6       29.90S
SEYMOUR +      CLOUDY    72  70  94 E6        29.88F

$$



USA.gov is the U.S. government's official web portal to all federal, state and local government web resources and services.